Wind_Speed
25 23 21 20 20 20 19 18 18 18 18 18 18 19 18 16 15 14 13 12 12 12 12 11 11 10 9 8 8 7 5 4 5 6 7 8 9 9 9 9 9 9 9 9 9 10 10 11 11 11 11 12 12 12 12 12 13 13 14 14 14 14 14 15 15 15 15 15 14 13 13 12 11 11 12 13 13 13 14 15 15 15 15 15 16
28 25 22 20 19 20 19 18 18 18 18 18 18 18 18 18 18 17 15 14 14 14 13 12 12 11 10 10 10 8 7 5 5 5 7 8 9 9 9 9 9 9 9 9 10 10 10 11 11 12 12 12 13 13 13 13 13 13 13 13 13 14 14 15 16 16 16 16 16 16 16 15 15 14 14 15 15 15 16 17 17 17 16 16 16
29 27 25 24 21 18 18 18 18 17 18 18 17 18 18 19 21 20 17 16 16 15 15 14 13 12 12 12 11 10 9 7 6 6 6 8 8 9 9 9 9 9 9 9 10 10 11 11 11 12 12 13 13 13 14 14 14 13 13 13 12 13 13 13 14 14 15 15 16 16 17 17 18 18 18 18 18 18 18 19 20 19 18 17 17
32 30 30 29 25 20 16 16 17 17 17 18 18 18 18 19 22 23 20 19 18 17 17 16 15 14 14 14 13 12 11 10 9 7 7 7 8 9 9 10 10 10 9 9 9 10 10 11 11 12 12 12 13 13 14 14 14 13 13 12 12 11 11 12 12 12 13 13 14 15 16 17 17 18 18 19 19 19 20 20 21 21 20 19 18
32 31 31 31 28 22 17 14 14 16 17 17 18 19 18 20 23 24 22 21 20 19 19 18 17 16 16 16 15 14 13 12 11 9 8 8 9 9 10 10 10 10 10 10 9 10 10 10 11 11 12 12 12 13 13 13 13 13 13 12 11 11 10 10 10 10 11 12 13 13 14 15 17 17 18 19 19 20 20 21 21 20 20 19 18
32 30 29 29 27 22 17 13 12 14 16 17 19 20 20 20 23 26 25 23 22 22 21 20 20 19 18 18 17 16 15 14 13 11 9 9 10 10 10 10 10 11 11 10 10 10 10 10 11 11 11 11 11 12 12 12 13 13 12 12 11 10 9 9 8 9 10 11 12 12 13 14 16 17 18 20 21 21 21 21 20 20 19 19 19
32 30 28 26 22 18 14 12 11 13 16 18 19 21 22 22 24 27 27 26 25 24 23 23 22 21 21 20 19 18 17 16 15 13 12 11 11 11 11 11 11 11 11 11 11 10 10 10 10 10 10 10 11 11 11 12 12 13 13 12 12 10 9 8 8 8 9 10 11 12 13 15 16 18 19 19 20 21 21 21 20 19 19 19 21
31 32 30 25 20 16 14 13 12 13 16 19 21 23 24 24 25 27 30 29 27 26 26 25 24 24 23 23 21 20 18 17 17 15 14 13 13 13 13 12 12 12 11 11 11 10 10 9 9 9 9 9 9 10 10 11 12 13 13 12 12 10 9 8 8 8 9 9 11 12 14 15 17 18 19 19 20 21 21 21 21 21 21 22 24
33 32 30 25 21 19 18 16 15 16 18 20 23 25 25 25 26 28 30 31 30 29 28 28 27 26 26 25 24 22 21 20 19 18 17 16 16 15 15 14 14 14 12 11 11 11 10 9 9 9 9 8 8 8 9 10 11 12 12 12 12 10 9 8 7 7 8 9 10 11 13 15 16 17 18 19 20 21 22 23 24 24 24 25 26
37 33 29 25 22 22 22 22 23 23 21 21 24 27 27 26 26 28 30 32 32 31 30 30 30 29 28 27 26 25 23 22 21 20 19 18 18 18 17 16 16 15 14 13 12 11 11 10 8 8 8 7 7 7 7 8 9 10 11 11 11 10 8 7 6 6 7 8 9 11 12 13 14 16 17 18 19 21 22 23 24 24 25 26 26
39 34 30 27 26 26 27 28 28 28 26 25 26 26 27 26 27 28 31 33 34 33 32 32 31 31 30 29 29 27 26 25 23 22 21 21 21 21 20 19 19 18 16 14 13 12 11 10 9 8 8 7 6 6 6 6 7 8 9 10 10 10 8 7 6 5 5 6 7 9 10 11 12 13 15 17 18 19 19 20 20 21 21 22 22
41 38 35 33 30 29 31 31 32 31 31 32 33 30 28 28 28 29 31 33 34 34 34 33 32 32 32 31 31 30 29 27 26 24 23 23 23 23 22 21 21 20 18 15 14 12 12 11 10 9 8 7 6 5 5 4 5 6 7 8 8 8 8 6 5 4 4 4 5 5 6 8 9 10 12 14 15 16 16 16 16 17 18 18 18
43 41 40 39 35 34 34 34 34 36 36 37 37 36 34 35 35 33 31 32 33 34 34 35 34 33 33 32 32 32 31 30 28 26 25 24 25 25 24 23 23 22 20 17 15 13 13 12 11 10 9 8 7 6 4 3 3 4 4 5 5 6 6 6 4 3 2 3 3 3 4 4 6 7 9 10 12 12 13 13 13 13 14 14 14
47 45 44 43 41 39 39 39 39 40 40 40 40 39 39 41 41 38 34 32 33 35 36 35 35 34 33 33 33 33 33 32 31 29 26 26 26 26 26 25 25 23 22 19 16 14 13 13 12 11 11 10 9 7 5 3 3 3 3 3 3 3 4 4 4 3 3 3 3 4 3 3 2 4 5 6 8 9 9 9 9 9 9 9 9
47 47 47 47 46 45 44 44 44 44 43 43 43 43 44 44 43 41 37 32 30 32 33 33 35 35 35 34 34 34 34 34 33 31 28 26 27 28 28 28 26 25 23 20 17 15 14 14 13 12 12 12 11 9 7 3 2 3 2 2 2 1 2 3 3 4 4 4 4 5 5 4 3 1 1 2 3 4 5 5 5 5 4 4 4
45 45 46 48 50 51 50 49 49 47 46 45 45 46 46 45 44 42 40 35 31 29 29 31 33 34 35 35 35 36 35 35 35 34 30 27 26 28 30 30 28 27 25 21 18 16 15 15 14 13 13 12 12 12 10 5 3 3 3 3 3 2 2 3 4 4 5 6 6 6 6 6 6 4 2 1 1 3 3 3 3 2 2 1 0
50 46 44 45 48 52 53 52 52 50 48 46 46 47 46 44 44 43 42 39 36 32 30 30 31 32 34 35 36 37 37 36 36 36 33 29 27 28 30 31 30 28 26 23 20 18 17 16 15 15 14 12 11 13 13 8 5 4 4 5 5 4 3 3 4 5 6 7 7 8 8 9 9 8 6 5 4 4 6 7 7 6 5 5 4
61 56 51 47 45 47 52 55 54 53 51 49 47 48 47 45 43 44 44 43 41 38 35 33 31 32 33 35 36 36 36 37 37 37 35 31 29 29 30 32 32 31 28 24 22 20 19 19 17 17 15 12 12 14 15 12 7 5 4 5 6 6 5 4 5 6 7 8 9 9 10 11 11 11 11 11 10 9 9 10 11 11 11 10 10
66 64 61 56 50 46 49 55 58 57 54 51 49 48 48 47 45 45 47 46 44 43 40 38 36 34 32 33 34 33 33 35 36 37 37 34 32 31 31 33 34 33 30 26 23 22 21 21 20 19 17 14 13 15 16 14 10 6 5 6 7 6 5 5 5 6 7 8 9 10 10 11 12 13 14 15 16 16 17 17 16 16 16 16 16
68 67 66 63 59 53 51 54 59 60 57 53 51 49 49 49 48 47 47 47 46 45 43 41 40 38 34 32 31 29 29 30 33 34 35 35 35 34 33 35 36 36 32 27 25 24 23 23 21 20 19 17 15 16 17 15 11 7 6 6 6 6 6 6 7 7 7 7 8 9 10 12 12 13 14 16 18 19 20 19 19 19 19 19 19
71 69 68 67 65 62 58 56 58 62 60 56 54 53 52 51 49 48 47 46 46 46 45 44 42 41 39 37 33 30 28 28 28 30 32 34 35 36 36 37 39 38 34 30 27 25 25 24 23 21 20 19 18 18 18 15 12 9 6 6 7 7 8 8 8 8 8 8 7 7 9 11 13 14 14 15 16 17 17 17 17 17 16 16 17
73 72 71 70 68 66 64 61 60 62 62 60 58 56 54 52 51 50 49 47 46 44 43 45 47 45 43 43 39 34 29 26 24 26 28 31 34 36 38 40 41 39 37 33 29 26 26 26 24 23 22 21 21 21 20 17 14 10 8 8 9 10 10 9 8 8 8 8 8 8 7 8 10 12 13 14 15 15 15 15 15 16 16 15 15
74 75 74 73 71 69 67 66 64 63 64 64 62 59 56 53 52 52 50 47 46 44 41 44 49 49 47 46 44 40 33 27 24 24 27 31 34 38 40 42 42 42 39 36 31 28 27 27 26 24 24 23 23 23 22 20 16 12 10 10 10 10 10 8 7 8 8 9 9 9 9 10 10 11 12 13 14 16 17 16 15 15 16 16 16
75 76 76 76 75 73 71 69 68 66 66 67 67 63 59 56 54 54 53 50 48 47 45 46 49 51 49 46 44 42 38 33 28 26 27 31 35 39 43 45 45 44 42 39 34 30 28 29 29 27 26 26 26 26 25 23 18 13 12 12 11 11 10 8 7 8 9 10 11 12 13 13 14 14 14 15 15 16 17 17 17 17 16 17 17
76 77 77 78 78 76 75 73 72 70 68 69 71 69 64 60 57 53 54 55 54 51 49 49 49 50 50 47 44 41 39 38 36 34 35 39 40 42 45 47 46 45 45 43 38 34 32 32 31 30 29 28 28 29 28 25 20 14 12 11 11 10 10 9 8 9 11 12 14 16 17 18 18 18 18 18 18 17 16 17 18 18 17 17 16
80 78 78 79 80 80 79 77 75 74 71 70 72 72 67 65 62 55 51 54 57 56 53 51 49 49 50 49 46 42 39 41 42 41 43 46 47 47 47 47 46 46 46 44 40 36 34 34 33 32 31 31 31 31 30 27 21 15 11 10 10 11 11 11 11 13 15 16 17 19 20 21 22 23 23 23 22 20 18 18 18 18 17 17 16
83 81 80 81 82 82 82 80 79 78 75 73 73 72 68 67 67 64 57 55 56 57 56 56 53 51 50 50 48 45 42 42 43 44 45 47 46 45 45 46 46 45 46 45 42 37 34 34 35 34 33 33 33 33 32 28 23 18 14 13 13 14 15 15 17 19 20 20 21 22 23 23 24 25 26 26 26 24 22 21 21 19 18 18 18
86 85 83 83 83 84 85 84 83 81 80 78 75 74 71 69 70 71 67 60 56 55 57 59 58 55 52 50 48 48 48 47 46 45 45 45 44 43 45 44 43 45 48 48 45 41 37 36 36 36 36 36 36 36 34 31 26 22 19 18 18 17 17 18 20 23 24 23 24 25 25 25 25 26 27 28 28 27 26 25 25 24 21 20 21
89 88 86 86 86 86 87 87 86 85 84 82 80 78 75 72 71 72 70 64 59 56 57 59 60 58 56 53 50 50 53 53 50 47 47 47 45 43 45 44 43 46 52 51 47 45 42 40 38 38 38 39 39 39 38 34 30 27 26 25 23 22 21 21 22 23 24 25 26 27 27 26 27 28 28 28 28 29 29 29 29 28 26 24 23
92 91 89 88 88 88 89 89 89 88 88 86 85 84 81 76 74 74 72 68 65 62 59 59 61 61 61 59 55 54 56 57 53 49 48 48 44 40 44 50 51 52 54 52 48 46 44 42 40 39 40 40 41 42 41 38 34 32 31 31 29 28 26 25 24 24 25 26 29 30 29 29 29 30 30 29 29 30 32 33 32 30 28 27 26
95 94 92 91 90 90 90 91 91 91 91 90 89 88 87 83 80 77 74 72 72 70 66 64 64 65 66 65 61 60 61 61 58 53 52 51 48 43 45 52 56 57 55 51 48 47 46 44 42 41 41 41 42 43 43 41 38 37 36 36 34 33 32 30 28 26 26 29 32 34 33 32 31 31 32 32 32 33 34 33 32 30 28 28 28
98 97 95 94 93 92 92 93 93 94 93 93 93 92 91 89 87 84 79 76 75 76 75 72 70 69 70 70 67 66 67 66 62 58 56 56 57 55 52 53 55 57 57 54 51 50 49 47 44 43 44 44 44 45 45 43 41 40 39 38 37 37 35 34 31 30 31 34 36 37 36 35 34 35 36 36 36 36 35 32 30 28 27 25 25
102 100 99 97 95 94 94 94 95 96 96 96 96 95 94 92 91 90 87 82 79 79 80 80 78 75 73 73 72 71 71 70 68 63 60 60 62 64 62 59 58 59 59 57 56 55 54 52 49 46 46 46 47 48 47 45 43 41 40 40 40 39 37 36 33 31 33 37 41 42 41 39 38 37 37 36 36 36 34 32 30 28 28 28 29
105 104 102 101 99 97 96 96 97 98 99 99 98 98 97 96 95 94 93 90 87 84 83 84 85 83 81 79 78 75 73 73 72 69 66 65 66 67 67 65 64 64 64 62 60 59 59 58 55 52 50 50 51 51 49 47 45 42 40 41 41 39 37 33 29 30 35 42 47 49 49 46 42 40 39 39 38 38 38 38 37 36 36 37 38
109 108 106 105 103 101 99 99 98 99 100 101 101 101 100 99 99 98 97 96 94 92 89 87 87 88 88 87 85 82 78 76 75 73 71 70 69 70 70 68 67 67 68 67 64 63 62 60 57 54 53 51 51 51 49 47 46 44 42 41 41 39 35 28 27 36 48 53 53 51 51 50 48 46 46 46 46 45 44 44 43 42 41 41 40
113 112 110 109 107 105 103 102 101 101 102 103 104 103 103 102 102 102 101 101 100 98 96 94 91 90 91 92 91 90 87 83 79 76 75 73 72 72 73 72 71 71 71 70 68 66 65 63 60 57 55 52 52 51 50 49 49 47 44 43 42 40 35 32 38 49 56 56 53 53 52 52 51 50 50 51 52 52 51 49 48 47 46 45 43
117 116 115 113 111 109 108 106 104 103 103 104 105 105 105 104 104 105 105 105 104 102 101 100 98 94 93 93 93 93 92 90 88 84 80 78 77 76 76 75 75 75 75 75 72 69 68 66 63 61 58 56 55 55 54 53 51 47 45 43 42 41 40 43 50 57 57 54 53 54 52 51 51 51 52 54 56 57 57 56 55 54 54 52 49
121 120 119 117 116 114 112 110 109 107 106 106 106 107 107 107 107 107 107 108 107 105 104 103 102 100 97 95 94 94 94 93 93 91 87 84 82 81 80 79 78 78 79 78 76 73 71 68 66 63 61 59 58 58 57 55 53 50 47 45 43 43 46 49 53 56 56 54 54 52 49 48 49 50 52 55 58 59 59 59 57 57 56 55 53
122 122 122 121 120 118 116 114 113 111 109 108 108 108 108 108 108 109 110 110 110 109 107 105 104 104 102 100 97 96 95 95 95 93 91 89 87 86 84 83 82 82 82 81 79 76 74 72 69 67 65 62 61 60 58 57 56 54 53 51 48 47 48 50 52 54 54 54 54 53 49 47 46 45 46 50 54 57 58 59 59 58 56 54 52
123 123 123 123 122 122 120 118 116 114 113 111 110 109 109 110 110 111 112 112 112 111 110 109 107 106 105 104 102 100 98 97 97 96 94 92 90 88 88 87 85 84 84 84 82 80 78 75 73 70 68 66 65 63 61 60 59 58 58 58 59 57 55 54 55 56 56 56 57 57 54 52 51 49 48 50 51 53 55 59 61 61 59 56 54
126 125 124 124 123 123 123 122 120 118 116 115 114 113 112 112 113 113 113 113 113 113 112 112 111 110 108 107 106 105 103 102 101 99 97 95 93 92 90 90 89 88 87 86 85 83 81 79 77 75 72 70 69 67 65 63 62 61 61 62 64 63 61 59 59 60 59 60 61 60 58 55 54 52 51 52 52 53 55 58 60 60 60 59 58
129 128 126 125 124 124 123 123 122 121 120 118 117 116 115 114 114 115 115 114 114 114 114 114 114 113 111 109 107 106 106 106 106 104 101 99 97 95 94 93 92 92 91 89 88 86 85 83 82 80 77 74 73 72 70 68 66 66 65 65 65 65 64 62 61 62 62 62 61 60 58 55 53 50 48 48 51 56 60 61 61 61 63 64 63
132 131 130 129 127 125 124 123 122 122 122 121 120 119 118 117 117 117 116 116 115 115 115 115 115 115 114 112 109 108 109 109 108 107 105 103 101 99 97 96 96 95 94 93 92 90 88 87 85 84 82 79 77 76 75 73 72 70 69 68 68 68 67 65 63 64 65 64 61 58 55 55 55 51 46 47 54 61 64 64 63 63 65 67 67
133 134 133 132 131 128 126 124 122 122 122 122 122 121 120 120 119 119 118 117 116 115 116 116 117 117 115 114 113 112 112 111 110 108 106 106 105 104 102 100 99 98 97 96 95 94 92 90 89 88 86 84 82 81 79 78 77 76 74 73 71 70 70 69 67 66 67 66 64 60 57 58 58 55 52 54 58 61 62 63 63 62 63 66 67
131 132 134 134 133 131 128 126 124 123 122 122 122 122 122 122 122 122 121 120 118 118 117 117 117 117 116 116 116 115 115 114 112 110 108 107 107 107 105 104 102 101 99 98 98 97 96 95 93 92 90 88 87 85 84 82 81 80 79 78 76 74 73 73 72 71 70 70 69 67 64 63 64 64 64 64 63 61 61 63 65 65 65 66 66
127 128 130 131 131 131 129 128 126 125 123 122 121 121 122 124 124 124 123 122 121 120 119 118 117 117 117 118 118 117 117 116 115 114 111 109 108 107 107 107 106 104 102 101 100 99 99 98 97 95 94 93 91 89 88 86 85 84 83 82 81 79 77 76 76 75 74 74 73 72 71 69 69 70 71 71 72 71 71 71 71 71 71 70 70
123 124 125 126 126 127 127 127 127 126 125 123 122 122 122 123 124 125 125 124 123 122 121 120 119 119 120 119 119 119 119 119 118 117 115 113 111 109 108 108 108 108 106 104 103 102 101 100 100 98 97 96 95 94 92 91 89 88 87 86 84 83 82 81 80 79 78 78 77 77 76 75 75 75 75 76 77 78 78 78 78 77 77 76 75
117 118 119 120 120 121 122 124 126 126 126 125 125 124 123 123 123 124 125 125 124 124 123 122 122 122 122 121 120 120 120 120 120 119 118 116 114 113 111 110 109 110 110 108 107 105 104 103 102 101 100 99 99 97 96 95 93 92 91 90 89 88 87 86 85 83 83 82 81 80 80 81 80 80 81 81 81 82 81 81 81 81 81 81 81
110 112 114 115 116 117 119 120 123 125 126 127 126 126 125 125 124 125 125 125 125 125 126 126 126 125 125 124 123 122 121 121 121 121 120 119 118 116 115 113 111 111 112 112 111 109 107 106 105 104 103 102 101 101 100 98 97 96 95 94 93 92 91 90 89 88 87 86 85 84 84 84 84 84 84 85 85 86 85 84 83 83 84 85 86
103 105 108 110 112 113 115 118 120 122 124 126 126 126 127 127 127 126 125 125 125 126 127 128 128 128 127 126 125 124 123 122 122 122 122 121 120 119 118 116 114 113 113 113 114 113 112 110 108 107 106 105 104 103 103 102 101 100 98 97 96 95 94 93 93 92 91 90 89 89 88 87 87 86 86 86 87 87 87 87 86 85 86 87 88
96 98 101 104 107 109 111 114 117 119 121 123 124 126 127 127 128 127 127 126 126 126 128 129 129 129 129 128 127 126 125 124 124 123 123 123 122 122 121 119 118 116 115 114 115 115 115 114 112 110 109 107 107 106 105 104 103 103 102 101 99 98 97 96 96 96 95 94 93 93 92 92 91 90 89 88 88 89 89 89 89 88 88 88 89
Wind_Direction
268 267 262 256 249 244 242 244 251 259 262 258 250 248 248 239 228 228 235 238 232 228 226 227 232 240 249 260 271 284 298 316 335 348 351 352 354 356 358 359 2 5 3 2 3 0 0 2 358 353 354 355 357 356 354 353 352 350 348 347 345 345 345 344 345 348 350 353 358 2 6 13 23 27 28 31 30 28 27 28 28 26 23 21 21
262 261 255 250 247 243 240 242 248 256 263 263 254 247 247 240 228 221 225 231 230 228 227 226 228 233 241 252 261 271 279 287 305 327 339 342 345 348 351 353 356 358 359 357 357 356 357 359 356 353 355 357 357 357 357 357 356 353 351 349 346 343 343 343 346 351 355 360 5 11 17 23 30 34 36 38 38 35 35 35 35 36 34 29 27
251 249 242 238 234 231 233 237 245 254 261 265 259 248 244 240 229 220 220 225 227 227 225 225 225 228 234 242 251 261 267 271 283 301 321 331 335 338 341 344 346 348 351 352 351 352 353 355 354 354 356 358 359 360 1 2 1 359 357 354 352 350 350 350 353 357 1 5 10 15 20 25 29 32 34 36 37 37 37 38 39 40 41 39 36
244 242 241 236 225 223 229 232 239 251 260 267 265 253 244 238 230 222 218 221 224 225 224 223 223 225 229 234 242 252 258 262 270 280 299 313 321 326 330 333 336 337 341 344 347 347 349 350 351 353 356 358 0 3 5 7 5 3 3 1 359 360 360 1 3 5 7 10 14 16 18 22 26 28 30 33 35 36 38 39 39 40 41 41 40
239 240 243 237 224 223 230 230 236 248 259 269 270 261 250 239 231 224 219 219 222 223 223 221 221 224 227 230 237 245 252 256 260 267 281 295 306 314 319 323 327 328 330 334 339 341 343 345 346 350 355 0 3 6 10 11 10 8 8 6 5 7 10 13 15 15 15 16 19 20 19 21 24 27 30 33 35 38 41 42 42 42 42 43 42
234 232 232 228 222 223 231 238 246 250 256 268 273 267 257 245 234 227 221 219 222 223 223 221 221 223 226 229 234 240 247 251 255 260 270 282 293 302 308 312 315 318 320 324 328 332 334 337 341 346 353 359 4 9 13 14 13 14 14 11 10 12 19 24 27 24 23 24 26 26 25 27 29 32 34 35 37 41 45 46 46 46 44 43 44
227 217 213 215 218 221 231 251 268 265 260 266 272 272 264 252 240 231 224 220 221 224 224 222 222 222 225 227 231 237 243 247 250 255 260 270 280 288 294 299 302 305 308 311 316 320 323 328 333 339 346 355 2 9 14 15 17 20 20 17 15 18 24 30 35 35 32 31 31 31 33 35 37 40 42 41 41 45 49 50 51 50 46 45 48
213 206 205 208 210 213 224 244 264 273 273 271 271 273 270 259 247 236 228 223 221 222 225 224 223 223 225 227 229 233 239 242 245 249 254 259 266 273 279 285 289 291 294 298 302 307 312 317 323 329 337 348 357 5 13 17 19 22 24 24 22 24 27 30 34 38 38 36 35 36 39 41 44 47 47 47 49 51 54 57 59 56 54 53 52
207 205 206 208 205 206 211 212 221 244 265 272 272 273 272 265 255 244 235 229 224 222 224 225 225 224 227 229 230 232 235 238 241 245 249 254 259 264 269 273 277 280 282 285 288 292 299 304 310 316 324 336 350 1 11 16 19 22 26 29 29 30 31 30 29 36 40 38 39 42 44 47 51 55 56 55 57 59 60 63 66 65 66 66 64
211 210 208 207 203 203 203 199 202 217 238 256 266 270 269 266 259 250 242 236 230 226 225 225 226 226 228 231 232 233 234 236 238 242 247 252 255 260 264 266 269 271 272 274 276 280 286 291 297 302 310 321 338 354 6 14 18 22 27 32 34 34 33 29 26 32 37 40 45 50 52 54 57 64 67 66 66 67 66 67 69 71 75 77 79
214 215 211 207 202 201 204 204 203 206 217 230 241 251 259 262 260 253 246 241 237 233 230 229 228 228 229 232 234 235 236 237 239 241 246 251 255 259 261 264 266 268 268 268 270 274 279 283 286 291 298 308 323 342 359 9 14 19 26 32 35 35 33 29 24 27 32 41 52 55 56 61 64 68 70 72 73 73 72 71 73 76 78 81 84
214 217 216 212 206 202 206 210 208 206 212 220 222 224 232 242 248 249 245 242 241 239 236 234 233 232 232 233 235 237 238 239 241 242 246 251 256 259 261 263 266 268 269 269 271 274 278 281 284 287 293 299 309 324 341 359 8 14 21 28 34 34 30 26 23 20 19 31 47 54 57 64 69 72 73 73 74 76 76 75 77 81 84 86 88
215 218 220 218 212 207 207 212 214 214 214 217 217 216 219 225 231 236 238 238 239 239 239 238 237 236 235 235 236 239 241 241 242 244 246 250 256 260 262 263 265 267 269 270 271 274 277 281 284 286 290 295 300 309 322 337 350 3 16 23 30 33 27 23 18 6 352 355 6 20 39 56 66 70 73 76 76 76 77 77 80 84 87 90 92
219 221 222 220 217 214 211 212 216 219 219 218 216 216 220 224 226 228 230 231 232 234 236 238 239 239 239 238 239 240 243 244 245 246 247 250 254 259 262 262 263 265 267 269 269 271 273 277 281 286 289 293 297 303 307 313 318 329 353 6 20 30 22 11 4 342 318 309 310 320 337 358 43 64 70 77 79 78 78 80 82 84 86 89 93
218 220 221 219 217 217 217 216 217 219 221 222 220 218 221 225 226 226 228 230 232 234 235 236 238 239 240 240 241 242 244 246 248 249 249 249 252 257 260 262 262 263 264 265 265 266 268 271 275 280 284 288 295 299 302 301 289 292 302 310 320 356 357 340 336 326 308 294 284 284 295 303 313 348 64 68 66 66 71 80 89 92 86 86 92
217 218 219 220 219 218 219 220 220 221 222 224 225 224 224 226 228 229 231 234 236 239 239 238 238 239 241 242 242 243 245 247 250 252 252 251 251 254 259 262 263 263 263 262 262 261 262 263 266 270 274 281 291 295 298 297 283 271 275 280 284 288 295 297 303 305 299 293 284 275 271 273 280 287 300 328 352 355 3 21 43 67 66 40 8
222 220 219 222 222 221 222 223 222 223 223 224 225 227 229 231 232 233 234 235 237 238 237 239 242 241 242 243 244 245 247 248 251 254 255 254 251 252 256 260 262 262 261 260 260 259 258 258 260 262 265 272 282 288 292 295 286 267 262 266 275 283 283 280 283 285 287 287 285 283 276 270 269 275 286 296 310 322 328 335 341 344 348 346 334
228 226 223 223 223 223 224 224 223 223 224 224 225 227 231 234 235 235 235 236 236 236 234 236 241 241 241 242 243 246 249 250 252 256 258 257 255 253 254 257 260 261 259 257 255 255 254 255 255 257 260 264 271 278 283 289 286 272 261 261 268 277 282 278 275 278 280 283 284 287 287 285 281 280 283 287 293 299 304 309 316 322 328 336 340
229 229 227 225 224 223 224 224 223 223 224 225 225 227 230 234 236 237 237 237 238 237 234 233 236 239 240 243 245 248 251 252 253 255 258 259 258 257 255 255 257 259 257 254 250 249 248 249 250 253 256 259 262 268 275 282 283 276 265 258 260 273 287 292 287 285 283 280 283 286 288 290 290 288 286 288 291 294 295 296 298 301 304 310 317
228 229 229 227 226 225 224 223 223 224 224 224 224 226 229 234 237 239 240 240 240 240 237 235 236 238 239 243 248 253 257 258 256 256 258 260 259 258 256 254 256 257 256 252 247 244 243 243 244 247 251 254 257 260 267 273 276 272 261 249 252 268 285 294 298 299 298 292 284 282 284 288 289 288 287 289 292 296 300 302 302 301 301 301 304
228 229 229 229 227 226 226 225 224 225 225 223 222 224 228 232 236 239 240 241 241 241 241 240 239 239 240 242 246 251 257 263 263 261 262 262 261 260 258 256 255 256 255 252 247 242 241 241 241 243 245 249 252 256 261 265 266 262 243 227 236 251 264 277 287 295 303 307 303 292 286 287 289 291 292 292 294 298 303 309 311 313 312 311 310
227 228 229 230 228 226 226 227 225 225 224 223 221 223 226 230 234 236 238 240 240 240 243 243 241 241 241 241 240 242 250 261 269 271 273 271 267 263 259 256 256 256 255 252 247 242 239 239 240 240 242 245 248 252 256 258 257 250 226 214 227 241 251 263 276 286 295 304 308 306 301 293 291 293 295 296 298 300 303 307 311 313 315 317 317
225 227 228 229 229 228 226 227 227 226 224 223 222 222 224 228 232 233 235 237 238 237 239 241 241 241 241 240 239 240 247 256 262 268 274 275 275 272 265 258 256 255 254 252 247 241 238 238 239 239 239 242 245 249 252 253 250 239 220 214 224 236 246 257 265 276 288 294 298 299 299 298 295 293 292 292 293 296 302 306 308 308 309 312 313
225 225 226 227 228 229 227 227 228 227 225 224 224 223 224 227 232 233 234 236 236 234 234 236 238 240 240 240 240 242 245 247 243 242 249 256 263 269 267 260 255 252 251 251 247 240 236 236 238 238 238 240 243 247 250 251 245 232 219 217 223 232 243 254 262 272 284 292 294 296 296 297 298 298 298 296 293 295 299 301 303 304 303 304 304
227 226 226 226 227 228 228 227 228 228 227 225 225 225 226 228 231 233 235 237 237 233 232 233 236 238 238 237 238 239 241 242 237 231 232 236 240 246 250 251 250 247 246 247 244 237 232 232 234 236 236 238 241 245 248 249 245 232 219 218 226 238 250 261 272 282 291 296 297 298 300 301 300 300 301 301 300 300 301 300 301 303 304 302 298
229 227 226 225 225 226 227 227 227 227 228 226 224 225 227 228 230 231 234 237 236 233 231 230 233 236 235 233 234 235 235 238 237 232 229 229 232 236 241 243 245 244 243 244 242 235 231 230 231 232 234 236 239 243 245 247 244 233 223 227 239 250 259 268 277 284 292 298 298 296 297 299 299 299 300 299 299 301 302 301 300 302 304 304 301
231 228 226 225 225 225 226 226 226 226 227 226 224 223 225 226 227 228 230 232 233 233 232 230 232 235 234 231 233 234 232 232 233 231 230 231 233 238 241 242 243 243 242 243 242 237 232 231 231 232 233 235 238 242 245 245 243 237 237 245 253 257 262 269 275 279 286 292 294 292 293 294 294 295 296 296 297 300 301 300 299 299 299 299 299
232 230 228 226 225 225 225 225 226 226 226 226 224 223 223 225 226 227 228 230 231 231 232 232 233 234 231 229 233 234 231 231 233 235 238 238 236 237 238 240 243 243 239 239 239 237 232 229 228 230 232 234 237 242 245 247 246 245 249 255 260 264 269 270 273 278 284 287 287 287 289 290 290 290 290 292 295 299 300 299 297 296 294 291 291
233 232 230 227 226 225 225 225 225 226 226 226 225 223 222 223 226 226 227 227 227 227 228 230 231 231 228 227 231 233 231 232 236 239 242 242 239 239 239 238 240 241 237 235 235 235 233 230 228 228 230 232 236 241 246 249 250 252 256 259 261 265 269 271 274 278 282 283 282 282 283 285 286 286 287 289 295 299 298 297 295 293 291 290 290
234 233 231 229 227 226 225 225 225 225 226 226 225 225 223 223 224 225 225 225 225 223 224 226 227 226 225 226 229 230 229 231 235 239 242 240 237 240 242 237 236 238 237 234 233 234 235 236 236 232 230 231 235 240 245 248 252 254 258 261 262 263 265 267 270 275 279 280 278 277 278 280 282 284 285 288 292 293 291 291 292 292 291 291 292
234 233 233 231 228 226 226 225 225 225 226 226 226 226 225 224 224 225 224 224 224 223 223 223 223 223 223 225 226 227 228 231 234 238 240 237 231 233 240 238 236 237 237 234 233 233 234 239 242 239 235 232 234 238 242 246 249 251 255 258 260 261 261 262 265 270 276 277 275 274 274 276 278 281 283 283 283 282 283 287 293 297 298 297 298
234 234 233 232 230 228 226 226 226 225 226 226 226 226 226 225 225 226 225 224 224 224 225 225 224 222 221 223 226 227 227 229 233 236 237 235 230 231 236 239 238 237 237 235 234 235 234 236 240 243 241 237 236 237 240 243 245 247 251 254 257 259 261 262 264 268 272 274 274 274 273 273 272 272 273 273 275 277 281 287 295 300 302 300 299
234 234 234 233 231 229 227 226 226 226 226 226 226 227 227 226 226 227 227 225 224 224 226 227 227 225 222 223 227 228 227 228 231 233 235 235 232 232 235 237 238 237 236 235 236 236 234 235 239 244 245 244 242 239 240 242 244 246 249 252 254 257 260 262 265 270 275 275 273 269 265 261 261 263 267 272 277 280 284 288 292 294 294 293 295
235 235 234 233 232 231 229 227 227 227 227 227 227 227 227 227 226 227 227 227 226 225 226 227 228 228 227 226 227 229 228 228 230 232 234 234 233 233 235 237 237 236 236 237 238 237 235 235 239 243 246 247 245 242 242 244 244 246 250 253 252 254 258 262 266 271 270 265 263 263 263 262 262 265 270 274 278 281 283 284 285 287 289 291 293
236 235 235 234 233 232 230 228 227 227 227 227 227 227 227 227 227 227 228 228 228 227 228 228 229 230 231 230 230 230 230 230 230 231 233 234 233 234 235 238 238 236 236 238 240 241 240 239 240 242 244 245 244 240 241 245 247 249 253 253 250 251 258 261 260 260 259 258 258 262 267 269 271 273 274 276 277 278 279 280 280 282 285 287 288
236 236 236 235 234 233 232 230 229 228 227 227 227 227 227 227 228 228 228 228 229 229 229 229 229 230 232 233 233 233 233 232 231 231 231 233 234 235 236 238 238 237 236 238 241 243 243 243 244 244 243 243 242 240 241 246 249 250 252 251 248 250 254 252 248 251 255 258 261 263 267 270 274 276 277 278 278 278 277 278 278 279 282 284 286
237 236 236 236 235 234 233 232 230 229 228 228 228 227 227 227 228 229 229 229 229 230 230 230 230 230 232 233 234 234 235 235 234 233 232 232 233 234 236 237 237 237 237 239 241 243 243 244 244 243 241 241 241 241 243 247 248 247 247 247 245 244 243 243 245 249 253 258 261 263 266 270 274 277 279 280 280 280 279 278 278 279 280 282 284
237 237 236 236 236 235 234 233 232 230 229 229 228 228 228 228 228 229 230 230 230 230 230 230 230 231 231 233 234 235 235 236 236 235 234 233 233 234 235 237 237 237 238 240 241 242 243 243 242 242 240 240 240 242 244 246 247 244 241 240 241 241 241 242 246 250 253 256 259 263 267 273 277 282 286 285 284 283 282 280 278 279 280 281 283
238 237 237 237 236 236 235 234 233 232 231 230 229 229 228 228 228 229 230 230 231 231 230 230 231 231 232 233 234 235 235 236 236 236 235 234 233 233 234 235 236 237 238 240 241 241 242 242 242 241 241 241 241 242 243 245 245 242 239 237 239 243 245 246 249 252 254 256 258 261 266 270 274 278 282 281 280 282 282 280 279 280 282 284 285
239 238 238 237 237 236 236 235 234 233 232 231 230 229 229 229 229 229 229 230 231 232 232 231 231 232 232 233 233 234 235 235 236 236 236 234 233 233 233 234 235 236 238 240 241 241 242 242 242 241 242 243 243 242 242 243 243 241 239 238 240 246 249 251 253 256 258 258 257 258 261 263 265 267 270 272 276 280 281 280 280 282 282 283 285
240 240 239 238 237 237 236 236 235 234 233 232 231 230 230 229 229 229 229 230 230 231 232 232 233 232 232 233 233 234 235 235 236 236 236 235 234 233 233 233 234 236 237 239 240 241 242 242 242 241 241 242 243 243 242 242 242 241 240 240 242 247 250 252 253 256 258 258 258 258 260 263 267 271 276 277 276 275 274 274 276 278 280 280 281
241 241 240 240 239 238 237 236 236 235 234 233 232 231 231 231 230 230 230 230 230 231 232 233 233 234 233 233 233 234 235 236 236 236 236 235 235 234 234 233 234 235 237 238 239 240 241 242 242 242 241 241 242 243 243 242 241 241 242 242 243 245 247 249 251 254 256 257 258 259 260 262 265 270 275 277 273 269 268 269 271 273 274 275 275
241 241 241 241 240 239 238 237 236 236 235 235 234 233 232 231 231 231 231 230 230 230 231 232 233 234 234 234 234 234 235 236 236 236 236 236 235 235 235 234 234 235 236 238 239 240 241 242 243 243 243 242 242 243 244 244 243 242 242 243 244 245 246 246 248 251 253 256 257 257 258 260 263 264 264 264 265 266 266 268 270 272 272 272 272
241 241 241 241 241 240 240 238 237 237 236 235 235 234 233 232 232 232 232 231 230 230 231 232 232 234 234 235 235 235 236 236 236 237 237 236 236 236 236 235 235 235 236 237 239 240 240 241 242 243 243 243 243 244 244 245 245 245 244 244 244 245 246 246 247 248 251 253 255 255 255 257 259 258 256 256 260 264 266 266 267 269 271 272 272
240 240 241 241 241 241 240 240 239 238 237 236 235 234 234 234 233 233 232 232 231 231 231 231 232 233 234 234 235 235 236 237 237 237 237 237 237 236 236 236 236 236 236 237 238 239 240 241 242 243 243 244 244 244 245 246 247 247 247 247 246 246 246 246 246 247 248 250 252 254 254 255 256 256 256 256 259 261 262 262 263 265 268 270 272
240 240 240 240 240 240 241 240 240 239 239 237 236 235 235 235 234 234 233 232 232 232 231 231 232 232 233 234 234 235 236 237 237 237 237 237 238 237 236 236 237 237 237 237 238 239 241 241 242 243 244 244 244 245 246 246 247 248 248 249 249 249 248 248 247 247 248 249 250 251 253 255 257 258 260 260 261 262 263 263 263 264 266 268 270
241 241 240 240 240 240 240 240 241 240 240 239 238 237 236 235 235 235 234 233 233 232 232 232 232 232 233 233 234 234 235 236 237 238 238 237 238 238 238 236 236 237 238 239 238 239 240 241 242 243 244 245 245 246 246 247 248 248 249 249 250 250 250 250 250 249 249 249 250 250 251 253 255 257 260 261 263 264 264 265 265 266 267 268 269
242 242 242 241 241 240 240 240 240 240 240 240 239 239 238 237 236 235 235 234 233 233 233 232 232 232 233 233 233 234 234 235 236 237 238 238 238 238 238 238 237 237 238 239 240 240 240 241 242 243 244 245 246 246 247 247 248 249 250 250 251 251 251 251 252 252 252 251 251 251 252 253 254 256 258 259 261 262 263 264 265 266 267 268 269
243 243 242 242 241 241 240 239 239 239 239 240 239 239 239 238 237 236 235 234 234 233 233 233 232 232 233 233 233 233 234 235 235 236 237 238 238 238 238 238 238 237 237 238 240 240 241 241 242 243 244 245 246 247 247 248 249 249 250 251 252 252 253 253 253 253 254 254 254 254 254 254 255 256 257 258 259 261 262 263 264 265 265 266 267
242 242 242 242 242 241 240 239 239 238 238 238 239 239 238 238 238 237 236 235 234 234 233 233 233 232 232 233 233 233 233 234 235 236 237 238 238 238 238 238 238 238 237 238 239 240 241 242 242 242 243 244 245 246 247 248 249 250 251 252 252 253 254 255 255 254 254 255 255 256 256 257 257 258 258 259 260 261 262 262 263 264 265 265 266
242 242 241 241 241 240 240 239 239 238 238 238 238 238 238 238 237 237 237 236 235 234 233 233 233 233 232 232 232 233 233 234 234 235 236 237 238 238 239 239 239 239 238 238 238 239 241 242 242 243 243 244 245 246 247 248 249 250 251 252 253 253 254 255 256 256 256 256 256 257 257 257 258 259 259 260 261 262 262 263 264 264 265 265 266
Height
11018 11019 11020 11020 11021 11022 11023 11024 11025 11026 11028 11030 11032 11033 11036 11037 11039 11039 11041 11042 11042 11043 11043 11043 11043 11043 11044 11044 11044 11044 11043 11043 11043 11042 11041 11041 11040 11040 11038 11037 11036 11035 11034 11033 11032 11031 11030 11029 11029 11028 11028 11026 11025 11024 11023 11022 11021 11020 11019 11018 11018 11017 11016 11014 11013 11013 11012 11011 11010 11010 11009 11008 11007 11007 11006 11004 11003 11002 11001 11000 10999 10998 10997 10996 10994
11017 11016 11016 11017 11017 11019 11020 11022 11023 11024 11026 11027 11029 11031 11033 11035 11037 11037 11039 11040 11041 11041 11042 11042 11042 11043 11043 11043 11043 11043 11043 11043 11043 11042 11042 11041 11040 11040 11039 11038 11037 11036 11035 11034 11033 11032 11031 11030 11029 11028 11028 11026 11025 11024 11023 11022 11021 11020 11020 11019 11018 11017 11016 11015 11014 11013 11012 11011 11010 11009 11008 11008 11007 11006 11005 11004 11003 11002 11002 11001 11000 10999 10997 10996 10994
11014 11012 11012 11012 11013 11014 11016 11018 11020 11022 11024 11026 11027 11029 11031 11033 11035 11036 11037 11038 11039 11040 11040 11041 11041 11042 11042 11042 11042 11042 11043 11043 11042 11042 11042 11041 11040 11040 11039 11038 11037 11036 11035 11035 11034 11033 11032 11031 11030 11029 11027 11026 11025 11024 11023 11022 11021 11020 11020 11019 11018 11018 11017 11016 11015 11013 11012 11011 11010 11009 11008 11007 11007 11006 11005 11005 11004 11003 11002 11001 11000 10998 10997 10996 10994
11011 11010 11010 11011 11010 11010 11012 11014 11017 11019 11021 11024 11025 11027 11028 11030 11032 11034 11034 11036 11037 11038 11038 11039 11040 11040 11041 11041 11041 11041 11042 11042 11042 11042 11041 11041 11040 11040 11039 11038 11038 11037 11036 11035 11035 11034 11033 11032 11030 11029 11028 11027 11026 11025 11024 11023 11022 11021 11020 11019 11019 11018 11017 11017 11016 11014 11013 11013 11012 11011 11009 11008 11008 11007 11006 11005 11004 11003 11002 11001 11000 10998 10997 10996 10994
11009 11008 11009 11010 11008 11007 11008 11011 11014 11016 11019 11021 11023 11025 11026 11028 11030 11031 11032 11033 11035 11035 11036 11037 11038 11038 11039 11039 11040 11040 11041 11041 11041 11041 11041 11041 11040 11040 11039 11039 11038 11037 11037 11036 11035 11034 11034 11032 11031 11030 11029 11028 11026 11025 11024 11023 11022 11021 11020 11020 11019 11018 11018 11017 11016 11015 11015 11014 11013 11012 11011 11010 11009 11008 11007 11006 11005 11004 11003 11002 11001 10999 10998 10996 10995
11004 11004 11005 11007 11007 11006 11007 11009 11011 11014 11016 11019 11021 11022 11024 11025 11027 11029 11030 11031 11032 11033 11034 11035 11036 11036 11037 11038 11038 11039 11039 11040 11040 11040 11040 11040 11040 11039 11039 11039 11038 11038 11037 11036 11036 11035 11034 11033 11032 11031 11029 11028 11027 11026 11025 11024 11023 11022 11021 11020 11020 11019 11019 11018 11017 11016 11016 11015 11014 11013 11012 11011 11010 11009 11008 11007 11006 11006 11005 11004 11002 11001 10999 10998 10996
11001 11002 11003 11004 11005 11005 11007 11008 11009 11012 11014 11016 11018 11020 11021 11023 11024 11025 11026 11027 11029 11030 11031 11032 11033 11034 11035 11035 11036 11037 11038 11038 11039 11039 11039 11039 11038 11038 11038 11038 11037 11037 11037 11036 11036 11035 11035 11034 11032 11031 11030 11029 11028 11027 11026 11025 11024 11023 11022 11021 11020 11020 11019 11019 11018 11017 11017 11016 11015 11014 11013 11013 11012 11011 11010 11009 11008 11007 11006 11005 11004 11002 11001 10999 10998
10999 11000 11000 11001 11002 11003 11004 11005 11007 11010 11012 11015 11016 11017 11019 11020 11021 11022 11023 11024 11025 11027 11028 11029 11030 11031 11032 11033 11034 11035 11036 11037 11037 11038 11038 11037 11037 11036 11036 11036 11036 11036 11036 11036 11036 11035 11034 11034 11033 11032 11031 11030 11029 11028 11027 11026 11025 11024 11023 11022 11021 11020 11020 11019 11019 11018 11018 11017 11016 11016 11015 11014 11014 11013 11012 11011 11010 11009 11008 11007 11005 11004 11003 11001 11000
10997 10998 10998 10998 10999 10999 10999 10999 11001 11006 11010 11012 11014 11015 11016 11017 11018 11019 11020 11021 11022 11024 11025 11026 11027 11028 11029 11030 11031 11032 11033 11034 11034 11035 11036 11036 11035 11035 11034 11034 11034 11034 11034 11035 11035 11034 11034 11034 11033 11032 11032 11031 11030 11029 11028 11027 11026 11025 11024 11023 11022 11021 11020 11020 11019 11019 11018 11018 11017 11017 11016 11016 11015 11014 11014 11013 11012 11010 11009 11008 11007 11006 11005 11003 11003
10994 10995 10995 10995 10995 10996 10994 10993 10995 11000 11004 11008 11011 11012 11012 11013 11014 11016 11017 11018 11019 11020 11021 11022 11023 11025 11026 11027 11028 11029 11030 11031 11032 11033 11033 11034 11034 11033 11033 11033 11033 11033 11033 11033 11034 11034 11033 11033 11033 11032 11032 11031 11031 11030 11029 11028 11027 11026 11025 11024 11023 11022 11021 11020 11019 11019 11019 11019 11018 11018 11017 11017 11016 11015 11014 11014 11013 11012 11010 11009 11008 11007 11006 11006 11005
10990 10992 10993 10993 10993 10993 10992 10991 10992 10994 10998 11002 11005 11007 11007 11008 11009 11010 11012 11014 11015 11017 11018 11019 11020 11021 11023 11024 11025 11026 11027 11028 11029 11030 11031 11032 11032 11032 11032 11032 11031 11032 11032 11032 11033 11033 11033 11033 11032 11032 11032 11031 11031 11030 11030 11029 11028 11027 11026 11025 11024 11022 11021 11020 11020 11019 11019 11019 11019 11019 11018 11018 11017 11016 11015 11014 11014 11013 11012 11011 11010 11009 11009 11008 11007
10986 10988 10989 10990 10991 10991 10991 10991 10990 10990 10993 10995 10997 10998 10998 10999 11000 11003 11006 11008 11011 11014 11015 11016 11018 11019 11020 11021 11022 11023 11024 11025 11027 11028 11029 11030 11031 11031 11031 11031 11031 11031 11031 11032 11033 11033 11033 11033 11032 11032 11032 11031 11031 11031 11030 11029 11029 11028 11027 11026 11025 11023 11022 11021 11020 11020 11019 11019 11019 11019 11019 11018 11018 11017 11016 11016 11015 11014 11013 11013 11012 11011 11011 11010 11009
10982 10983 10985 10986 10988 10989 10989 10989 10989 10990 10990 10991 10991 10991 10990 10989 10990 10993 10998 11002 11006 11009 11012 11013 11015 11017 11018 11019 11020 11020 11021 11022 11024 11026 11027 11028 11029 11029 11030 11030 11030 11030 11030 11031 11032 11033 11033 11033 11033 11033 11032 11032 11031 11031 11030 11030 11029 11028 11027 11027 11026 11024 11023 11022 11021 11020 11020 11019 11019 11019 11019 11019 11018 11018 11017 11017 11016 11015 11015 11014 11013 11013 11012 11011 11010
10976 10978 10980 10982 10985 10985 10985 10986 10987 10988 10990 10990 10989 10987 10986 10985 10985 10987 10991 10996 11000 11003 11006 11009 11012 11014 11015 11016 11017 11018 11019 11020 11021 11023 11025 11027 11027 11027 11028 11028 11028 11029 11029 11030 11031 11032 11032 11033 11033 11033 11032 11032 11031 11031 11030 11030 11029 11028 11027 11027 11026 11025 11024 11023 11022 11021 11020 11020 11019 11019 11019 11019 11019 11018 11018 11017 11017 11016 11015 11015 11014 11013 11012 11012 11011
10970 10972 10974 10977 10979 10980 10981 10982 10983 10985 10987 10988 10988 10986 10985 10984 10985 10987 10989 10993 10996 10998 11002 11005 11007 11009 11011 11013 11014 11015 11016 11017 11018 11020 11023 11025 11025 11025 11025 11026 11026 11027 11027 11028 11029 11030 11031 11031 11032 11032 11032 11032 11031 11031 11031 11030 11029 11028 11027 11027 11026 11025 11024 11023 11022 11021 11021 11020 11019 11019 11018 11018 11018 11018 11018 11017 11017 11016 11015 11015 11014 11013 11013 11012 11011
10964 10966 10969 10971 10972 10973 10975 10977 10979 10981 10984 10985 10986 10986 10985 10985 10987 10989 10992 10994 10996 10998 11000 11001 11002 11004 11006 11008 11010 11011 11013 11014 11015 11016 11019 11022 11023 11023 11023 11023 11024 11025 11026 11027 11028 11029 11029 11029 11030 11030 11030 11030 11031 11030 11030 11030 11030 11029 11027 11027 11026 11025 11025 11024 11023 11022 11021 11020 11019 11018 11018 11017 11017 11017 11017 11017 11016 11015 11015 11014 11014 11013 11012 11012 11011
10957 10961 10963 10964 10965 10968 10971 10973 10975 10978 10980 10982 10983 10984 10985 10986 10988 10989 10992 10994 10996 10997 10997 10998 10999 11000 11001 11002 11004 11006 11008 11010 11011 11012 11015 11019 11021 11021 11021 11021 11021 11022 11023 11025 11026 11027 11027 11028 11028 11028 11028 11028 11029 11029 11029 11029 11029 11028 11027 11027 11026 11025 11024 11023 11023 11022 11020 11020 11019 11018 11017 11017 11016 11016 11016 11016 11016 11015 11015 11014 11013 11013 11012 11011 11011
10951 10954 10957 10958 10961 10964 10966 10968 10970 10973 10975 10978 10980 10981 10983 10984 10986 10987 10988 10990 10992 10993 10994 10996 10996 10996 10996 10997 10999 11002 11004 11006 11008 11009 11011 11015 11017 11018 11019 11019 11019 11019 11020 11022 11023 11024 11025 11025 11026 11026 11026 11026 11027 11026 11026 11027 11028 11028 11027 11026 11025 11024 11024 11023 11022 11021 11020 11019 11018 11018 11017 11016 11016 11016 11015 11015 11015 11015 11014 11013 11013 11012 11011 11011 11010
10944 10947 10950 10953 10956 10959 10960 10962 10965 10968 10971 10974 10977 10979 10980 10981 10982 10983 10983 10985 10988 10990 10991 10992 10993 10994 10995 10995 10996 10998 10999 11001 11004 11006 11008 11011 11013 11015 11016 11016 11016 11016 11017 11018 11020 11021 11021 11022 11023 11023 11024 11024 11024 11024 11024 11024 11025 11026 11026 11025 11024 11023 11023 11022 11021 11021 11020 11019 11018 11017 11017 11016 11015 11015 11014 11013 11013 11013 11013 11012 11011 11010 11010 11009 11009
10938 10940 10942 10946 10950 10953 10955 10957 10960 10963 10965 10970 10973 10974 10975 10976 10977 10979 10980 10983 10986 10987 10988 10990 10991 10992 10994 10994 10995 10996 10997 10998 11000 11002 11004 11007 11010 11011 11013 11013 11013 11012 11014 11015 11017 11017 11018 11018 11020 11020 11021 11022 11022 11022 11021 11022 11023 11024 11024 11024 11023 11023 11022 11021 11020 11020 11019 11018 11017 11016 11015 11015 11014 11013 11013 11012 11011 11010 11010 11010 11009 11008 11008 11007 11006
10931 10933 10935 10939 10943 10947 10950 10952 10955 10957 10960 10964 10967 10968 10969 10971 10972 10974 10976 10979 10981 10983 10986 10988 10989 10990 10991 10991 10993 10994 10995 10996 10998 11000 11002 11004 11006 11008 11009 11009 11009 11010 11011 11012 11013 11014 11015 11016 11017 11017 11018 11019 11019 11019 11019 11019 11020 11021 11022 11022 11022 11022 11021 11020 11020 11019 11018 11017 11016 11015 11014 11013 11012 11011 11011 11010 11009 11009 11008 11007 11007 11006 11005 11005 11004
10924 10926 10929 10932 10935 10940 10943 10946 10948 10951 10953 10957 10959 10961 10963 10965 10967 10969 10971 10973 10976 10979 10982 10984 10985 10986 10987 10988 10989 10990 10993 10995 10997 10999 11000 11001 11003 11005 11006 11006 11006 11007 11008 11009 11010 11012 11012 11013 11014 11015 11016 11016 11016 11016 11016 11017 11017 11018 11019 11020 11020 11020 11019 11019 11018 11018 11017 11016 11015 11014 11013 11012 11011 11010 11009 11008 11007 11006 11006 11006 11005 11004 11003 11002 11002
10916 10919 10922 10924 10928 10932 10936 10938 10941 10944 10947 10949 10951 10954 10957 10959 10961 10962 10964 10966 10970 10973 10976 10977 10978 10979 10981 10983 10984 10987 10989 10991 10994 10997 10999 11000 11002 11003 11004 11003 11003 11004 11004 11006 11007 11009 11010 11011 11012 11012 11013 11013 11014 11014 11014 11014 11014 11015 11016 11017 11017 11017 11017 11017 11017 11016 11015 11014 11013 11012 11011 11010 11009 11008 11008 11007 11005 11004 11004 11003 11003 11002 11001 11000 10999
10907 10910 10913 10917 10920 10924 10927 10930 10933 10936 10940 10942 10944 10947 10950 10953 10955 10957 10958 10960 10962 10965 10968 10969 10970 10972 10974 10978 10980 10981 10983 10984 10985 10987 10990 10993 10996 10999 10999 10999 10999 10999 11001 11002 11003 11005 11007 11008 11009 11010 11010 11011 11011 11011 11011 11011 11012 11012 11013 11014 11015 11015 11015 11015 11015 11014 11013 11012 11011 11010 11009 11008 11007 11006 11006 11005 11004 11003 11002 11001 11001 11000 11000 10999 10997
10896 10900 10904 10908 10912 10915 10918 10922 10924 10927 10932 10935 10937 10939 10942 10945 10948 10950 10952 10953 10955 10958 10961 10962 10963 10964 10967 10971 10974 10975 10977 10976 10974 10974 10976 10977 10979 10982 10985 10988 10991 10993 10994 10995 10997 11000 11002 11004 11006 11006 11007 11007 11008 11008 11008 11008 11009 11010 11011 11012 11012 11013 11013 11013 11013 11012 11011 11010 11008 11006 11005 11005 11004 11003 11003 11002 11001 11001 11001 11000 10999 10998 10998 10997 10996
10885 10890 10895 10898 10902 10906 10909 10913 10916 10918 10922 10926 10928 10931 10935 10938 10941 10944 10945 10946 10948 10952 10955 10956 10957 10958 10961 10965 10967 10969 10970 10969 10966 10966 10964 10961 10962 10968 10974 10979 10984 10987 10989 10990 10992 10994 10997 10999 11001 11002 11003 11004 11004 11004 11004 11005 11006 11008 11009 11010 11010 11010 11010 11010 11010 11010 11008 11007 11005 11003 11002 11001 11001 11000 11000 10999 10999 10999 10999 10998 10998 10997 10996 10995 10994
10874 10879 10884 10888 10892 10895 10899 10903 10906 10909 10913 10916 10920 10923 10926 10929 10932 10934 10936 10938 10942 10946 10949 10950 10952 10953 10956 10959 10961 10963 10963 10961 10959 10957 10955 10954 10959 10966 10971 10976 10981 10983 10984 10986 10988 10991 10993 10995 10997 10999 11000 11000 11000 11000 11001 11002 11003 11004 11006 11007 11007 11007 11007 11007 11007 11006 11005 11004 11002 11000 10998 10998 10997 10997 10996 10996 10996 10997 10997 10997 10995 10995 10995 10993 10991
10863 10867 10872 10877 10881 10885 10888 10892 10896 10900 10903 10906 10910 10914 10917 10919 10921 10923 10926 10931 10935 10939 10941 10943 10945 10948 10951 10953 10954 10955 10956 10954 10952 10951 10951 10953 10959 10964 10968 10974 10979 10979 10979 10979 10982 10985 10987 10989 10991 10994 10996 10997 10997 10997 10997 10998 11000 11001 11002 11003 11004 11004 11004 11003 11002 11001 11001 11000 10999 10996 10995 10994 10994 10994 10994 10994 10994 10995 10995 10994 10993 10992 10991 10990 10989
10851 10856 10860 10865 10870 10874 10878 10882 10886 10889 10892 10896 10900 10904 10907 10910 10912 10914 10918 10922 10926 10930 10932 10933 10936 10940 10943 10944 10946 10948 10948 10946 10945 10946 10949 10952 10956 10961 10965 10970 10972 10971 10971 10973 10976 10979 10981 10982 10984 10987 10990 10992 10994 10994 10994 10995 10996 10997 10998 10999 11000 11000 11000 10999 10998 10997 10996 10996 10994 10992 10991 10990 10990 10990 10991 10991 10992 10992 10991 10990 10989 10987 10986 10986 10985
10839 10844 10848 10853 10858 10863 10867 10871 10875 10878 10882 10886 10890 10893 10897 10900 10903 10905 10909 10913 10916 10919 10921 10923 10926 10931 10934 10935 10938 10940 10940 10940 10941 10942 10944 10948 10952 10955 10957 10959 10960 10961 10964 10969 10972 10974 10976 10978 10979 10981 10984 10987 10989 10990 10991 10992 10993 10994 10995 10995 10995 10996 10996 10995 10994 10992 10991 10991 10989 10987 10986 10986 10986 10987 10988 10989 10989 10989 10987 10985 10984 10984 10983 10982 10982
10827 10832 10836 10841 10846 10852 10856 10860 10864 10867 10871 10876 10879 10883 10886 10890 10893 10896 10899 10903 10906 10909 10911 10913 10917 10921 10923 10925 10928 10930 10932 10933 10934 10936 10938 10942 10946 10946 10945 10948 10952 10956 10959 10964 10967 10969 10971 10973 10974 10977 10979 10982 10985 10986 10987 10988 10989 10990 10991 10991 10991 10992 10991 10990 10989 10989 10987 10986 10983 10981 10981 10981 10982 10984 10984 10984 10984 10982 10981 10980 10981 10981 10982 10981 10980
10815 10819 10824 10829 10834 10840 10845 10849 10853 10857 10860 10864 10868 10872 10875 10879 10883 10886 10889 10893 10896 10898 10901 10904 10908 10911 10914 10916 10918 10920 10922 10924 10926 10929 10931 10935 10937 10937 10938 10941 10946 10950 10953 10957 10960 10962 10965 10968 10969 10971 10974 10977 10979 10980 10982 10983 10984 10985 10986 10987 10987 10987 10986 10986 10986 10985 10983 10980 10978 10977 10976 10975 10976 10977 10977 10977 10976 10976 10977 10978 10980 10980 10980 10978 10977
10801 10806 10811 10816 10821 10827 10832 10837 10841 10845 10848 10852 10857 10861 10865 10869 10873 10876 10879 10883 10886 10888 10891 10895 10898 10902 10905 10907 10908 10910 10912 10916 10919 10921 10924 10926 10928 10930 10932 10935 10939 10942 10946 10950 10952 10955 10958 10961 10963 10965 10968 10971 10973 10975 10977 10978 10979 10980 10981 10982 10982 10982 10983 10983 10982 10982 10980 10977 10971 10967 10965 10965 10966 10969 10971 10971 10972 10973 10975 10977 10978 10978 10977 10975 10974
10788 10793 10798 10803 10808 10814 10819 10824 10829 10833 10837 10841 10845 10849 10854 10859 10863 10866 10869 10873 10876 10878 10881 10884 10888 10892 10895 10898 10899 10901 10904 10907 10910 10913 10915 10917 10919 10921 10924 10928 10931 10935 10938 10941 10944 10946 10950 10953 10956 10959 10961 10964 10966 10969 10971 10972 10973 10975 10976 10976 10977 10978 10979 10980 10981 10980 10975 10968 10961 10957 10956 10958 10962 10966 10969 10970 10970 10972 10972 10973 10974 10974 10973 10972 10971
10774 10779 10784 10789 10795 10801 10806 10811 10816 10820 10824 10828 10833 10838 10842 10847 10852 10856 10859 10861 10864 10868 10871 10875 10878 10882 10885 10887 10890 10893 10896 10899 10901 10904 10907 10909 10912 10914 10916 10919 10923 10926 10930 10933 10935 10938 10941 10945 10949 10952 10955 10957 10959 10962 10964 10965 10967 10969 10970 10971 10973 10974 10975 10978 10977 10970 10959 10954 10954 10954 10953 10955 10958 10962 10965 10966 10967 10968 10968 10968 10969 10969 10969 10968 10967
10758 10764 10769 10774 10780 10786 10792 10797 10803 10808 10812 10816 10821 10826 10831 10836 10840 10844 10846 10849 10852 10857 10861 10865 10868 10872 10874 10876 10881 10885 10888 10890 10893 10896 10899 10902 10905 10907 10908 10910 10913 10917 10921 10924 10927 10930 10933 10937 10940 10944 10948 10950 10952 10954 10957 10958 10960 10962 10964 10966 10968 10969 10969 10968 10962 10951 10944 10946 10951 10951 10949 10950 10952 10955 10958 10960 10960 10961 10962 10963 10963 10963 10962 10962 10962
10742 10748 10753 10758 10764 10771 10776 10782 10788 10794 10799 10803 10808 10813 10819 10824 10828 10830 10833 10837 10841 10846 10850 10853 10857 10861 10863 10866 10871 10876 10879 10881 10884 10888 10891 10895 10898 10898 10899 10901 10905 10909 10912 10915 10918 10922 10925 10928 10931 10935 10939 10943 10944 10946 10949 10951 10953 10955 10958 10958 10959 10958 10955 10950 10943 10938 10939 10944 10945 10944 10945 10947 10948 10950 10953 10953 10952 10953 10954 10954 10955 10956 10955 10956 10956
10725 10731 10736 10741 10747 10754 10760 10766 10773 10779 10785 10790 10795 10800 10806 10811 10815 10818 10821 10825 10829 10833 10837 10840 10845 10850 10854 10857 10861 10865 10868 10871 10874 10878 10883 10887 10889 10891 10892 10894 10897 10900 10903 10906 10909 10913 10916 10919 10922 10926 10929 10933 10937 10939 10941 10943 10945 10947 10949 10950 10949 10947 10944 10940 10937 10936 10939 10941 10939 10939 10942 10944 10944 10947 10950 10949 10945 10944 10945 10945 10946 10946 10946 10947 10948
10707 10713 10719 10724 10730 10737 10743 10749 10756 10763 10770 10776 10781 10787 10793 10798 10802 10805 10808 10811 10816 10821 10825 10830 10835 10839 10843 10847 10851 10854 10857 10860 10863 10868 10873 10878 10881 10883 10884 10887 10890 10893 10894 10897 10900 10904 10906 10909 10913 10917 10920 10924 10928 10931 10933 10935 10936 10938 10940 10942 10941 10939 10938 10937 10935 10935 10937 10938 10936 10935 10937 10938 10939 10942 10945 10941 10936 10935 10937 10937 10937 10938 10938 10938 10939
10688 10695 10701 10707 10713 10719 10726 10732 10740 10747 10754 10761 10767 10772 10778 10783 10786 10789 10793 10798 10803 10809 10814 10819 10822 10826 10831 10836 10840 10842 10846 10849 10852 10856 10862 10867 10871 10873 10876 10879 10882 10884 10886 10888 10891 10894 10897 10900 10904 10908 10912 10914 10917 10921 10923 10925 10927 10929 10931 10932 10932 10931 10932 10933 10932 10931 10932 10932 10930 10929 10930 10929 10930 10933 10935 10934 10933 10935 10935 10932 10929 10930 10931 10931 10930
10670 10676 10682 10688 10695 10701 10708 10716 10723 10730 10737 10744 10750 10756 10761 10766 10770 10774 10779 10785 10790 10796 10800 10805 10809 10814 10819 10824 10828 10832 10835 10838 10841 10845 10850 10855 10860 10863 10866 10870 10873 10875 10877 10880 10882 10885 10888 10890 10894 10898 10902 10905 10907 10909 10913 10915 10918 10920 10921 10922 10923 10923 10924 10925 10926 10924 10924 10924 10922 10922 10923 10924 10925 10927 10928 10930 10932 10933 10931 10926 10923 10924 10925 10924 10922
10651 10657 10663 10669 10675 10682 10690 10698 10706 10713 10719 10727 10734 10740 10746 10751 10755 10760 10765 10770 10776 10782 10787 10791 10796 10800 10805 10811 10818 10823 10825 10825 10827 10832 10839 10844 10848 10852 10856 10860 10863 10865 10867 10870 10873 10876 10878 10881 10884 10887 10892 10895 10897 10899 10902 10904 10907 10909 10911 10912 10913 10914 10915 10916 10917 10917 10917 10916 10915 10914 10916 10917 10919 10920 10920 10921 10921 10919 10917 10916 10916 10916 10916 10915 10913
10632 10638 10644 10650 10656 10663 10672 10680 10688 10695 10702 10710 10717 10724 10730 10735 10740 10744 10750 10756 10763 10769 10774 10779 10782 10785 10791 10800 10808 10811 10810 10810 10813 10820 10827 10832 10836 10840 10845 10849 10852 10855 10858 10860 10863 10866 10869 10872 10874 10877 10881 10884 10887 10889 10891 10893 10896 10899 10901 10902 10903 10904 10905 10907 10908 10908 10908 10908 10907 10907 10907 10907 10907 10909 10910 10909 10907 10905 10905 10905 10906 10906 10905 10904 10903
10613 10619 10625 10630 10636 10644 10652 10662 10670 10677 10684 10692 10699 10707 10714 10719 10724 10729 10734 10741 10749 10755 10760 10763 10766 10771 10779 10788 10793 10795 10795 10797 10802 10808 10814 10818 10823 10828 10833 10837 10840 10844 10847 10850 10853 10856 10859 10862 10864 10867 10870 10874 10876 10879 10881 10883 10886 10888 10890 10892 10894 10895 10896 10897 10898 10899 10899 10899 10898 10898 10898 10897 10895 10895 10897 10897 10897 10897 10897 10896 10896 10895 10895 10893 10892
10593 10599 10605 10611 10618 10626 10635 10644 10651 10658 10665 10673 10682 10690 10697 10702 10707 10712 10718 10725 10733 10739 10743 10747 10754 10761 10768 10772 10776 10779 10782 10785 10789 10795 10800 10805 10809 10814 10820 10824 10828 10832 10836 10839 10842 10845 10848 10851 10853 10856 10860 10863 10866 10868 10871 10873 10874 10876 10879 10881 10883 10884 10886 10887 10888 10889 10889 10889 10888 10888 10888 10888 10887 10886 10886 10887 10888 10889 10888 10887 10887 10886 10885 10884 10883
10574 10579 10585 10592 10600 10609 10618 10626 10633 10640 10648 10656 10665 10672 10678 10683 10689 10695 10702 10709 10716 10722 10728 10735 10743 10748 10751 10754 10759 10765 10769 10771 10775 10781 10787 10791 10795 10800 10806 10811 10815 10819 10823 10827 10830 10833 10836 10839 10843 10846 10849 10852 10855 10858 10860 10862 10863 10865 10867 10869 10872 10874 10875 10877 10878 10879 10880 10880 10880 10879 10879 10879 10879 10878 10878 10878 10878 10878 10878 10878 10878 10877 10877 10876 10875
10555 10561 10568 10576 10585 10593 10602 10610 10616 10622 10631 10639 10646 10653 10659 10666 10672 10678 10685 10692 10700 10707 10714 10722 10728 10731 10733 10738 10745 10750 10754 10757 10762 10767 10772 10778 10782 10786 10791 10797 10802 10806 10810 10814 10817 10821 10824 10827 10831 10835 10837 10840 10843 10846 10848 10851 10853 10854 10856 10859 10860 10862 10864 10865 10867 10869 10870 10871 10871 10872 10871 10871 10871 10870 10869 10869 10868 10868 10868 10869 10868 10868 10868 10867 10866
10541 10548 10554 10561 10569 10577 10585 10592 10599 10605 10612 10619 10626 10633 10640 10647 10654 10660 10667 10675 10684 10691 10698 10705 10710 10712 10716 10723 10729 10734 10738 10743 10748 10752 10757 10763 10769 10773 10777 10782 10788 10793 10797 10800 10804 10808 10811 10815 10819 10823 10825 10828 10831 10834 10836 10839 10842 10843 10845 10847 10849 10851 10853 10854 10856 10858 10859 10860 10861 10862 10862 10862 10862 10861 10861 10860 10860 10859 10859 10859 10859 10859 10858 10857 10856
10528 10533 10538 10544 10551 10559 10565 10572 10579 10585 10591 10597 10605 10612 10619 10627 10633 10640 10648 10657 10665 10672 10679 10685 10690 10694 10699 10706 10712 10718 10724 10729 10733 10737 10742 10747 10754 10758 10762 10767 10773 10779 10783 10787 10790 10794 10798 10803 10807 10810 10813 10816 10819 10821 10824 10827 10830 10832 10834 10835 10837 10839 10841 10843 10845 10846 10848 10849 10850 10851 10851 10852 10852 10852 10851 10851 10850 10850 10850 10850 10850 10849 10848 10847 10846
10511 10516 10521 10526 10532 10539 10546 10552 10558 10564 10570 10577 10584 10592 10599 10605 10612 10619 10628 10637 10645 10652 10658 10664 10670 10676 10682 10689 10697 10703 10709 10714 10718 10723 10727 10732 10738 10743 10747 10753 10758 10763 10768 10773 10776 10780 10785 10789 10793 10796 10800 10803 10807 10809 10812 10814 10817 10820 10822 10824 10826 10827 10829 10831 10832 10834 10836 10837 10838 10838 10839 10840 10840 10841 10841 10840 10840 10839 10839 10839 10838 10838 10837 10836 10835
10494 10500 10504 10509 10514 10520 10526 10532 10538 10544 10550 10558 10565 10572 10577 10583 10591 10599 10608 10616 10624 10631 10638 10644 10651 10658 10665 10672 10680 10687 10693 10698 10703 10708 10713 10718 10723 10727 10733 10738 10744 10748 10753 10758 10763 10767 10771 10774 10778 10782 10787 10790 10793 10796 10799 10802 10804 10807 10810 10812 10814 10816 10817 10818 10820 10821 10823 10824 10825 10825 10826 10827 10828 10828 10829 10829 10829 10828 10827 10827 10826 10826 10825 10824 10824